Change the Weather History Date:

Friday, September 20, 2013

  Actual Average (KHVN) Record (KHVN)
Temperature  
Mean Temperature 60 °F -  
Max Temperature 78 °F 70 °F 92 °F (1983)
Min Temperature 44 °F 55 °F 41 °F (1979)
Degree Days  
Heating Degree Days 4    
Growing Degree Days 10 (Base 50)    
Moisture  
Dew Point 47 °F    
Average Humidity 85    
Maximum Humidity 100    
Minimum Humidity 36    
Precipitation  
Precipitation 0.00 in - - ()
Sea Level Pressure  
Sea Level Pressure 30.07 in    
Wind  
Wind Speed 1 mph (South)    
Max Wind Speed 9 mph    
Max Gust Speed -    
Visibility 4 miles    
Events Fog    
Averages and records for this station are not official NWS values.
T = Trace of Precipitation, MM = Missing Value Source: NWS Daily Summary

Daily Weather History Graph

Daily Weather History Graph

Search for Another Location

Airport or City:

Trip Planner

Search our weather history database for the weather conditions in past years. The results will help you decide how hot, cold, wet, or windy it might be!

Date:

Astronomy

Sep. 20, 2013 Rise Set
Actual Time 6:36 AM EDT 6:51 PM EDT
Civil Twilight 6:09 AM EDT 7:19 PM EDT
Nautical Twilight 5:36 AM EDT 7:51 PM EDT
Astronomical Twilight 5:03 AM EDT 8:24 PM EDT
Moon 7:21 PM EDT (9/20) 7:50 AM EDT (9/20)
Length of Visible Light 13h 10m
Length of Day
12h 14m
Full, 98% of the Moon is Illuminated
Sep 20
Full
Sep 26
Last Quarter
Oct 4
New
Oct 11
First Quarter
Oct 18
Full

Hourly Weather History & Observations

Time (EDT) Temp. Dew Point Humidity Pressure Visibility Wind Dir Wind Speed Gust Speed Precip Events Conditions
12:53 AM 48.9 °F 46.0 °F 90% 30.08 in 4.0 mi Calm Calm - N/A   Clear
1:18 AM 46.4 °F 46.4 °F 100% 30.08 in 2.0 mi Calm Calm - N/A   Clear
1:26 AM 46.4 °F 44.6 °F 93% 30.08 in 6.0 mi Calm Calm - N/A   Partly Cloudy
1:48 AM 48.2 °F 44.6 °F 87% 30.08 in 1.8 mi Calm Calm - N/A   Partly Cloudy
1:53 AM 46.9 °F 45.0 °F 93% 30.08 in 0.8 mi Calm Calm - N/A   Mist
1:59 AM 46.4 °F 46.4 °F 100% 30.08 in 1.2 mi Calm Calm - N/A   Partly Cloudy
2:08 AM 46.4 °F 44.6 °F 93% 30.08 in 2.5 mi Calm Calm - N/A   Partly Cloudy
2:22 AM 46.4 °F 44.6 °F 93% 30.08 in 1.0 mi Calm Calm - N/A   Mist
2:29 AM 46.4 °F 44.6 °F 93% 30.08 in 0.5 mi Calm Calm - N/A Fog Fog
2:40 AM 46.4 °F 44.6 °F 93% 30.08 in 0.2 mi Calm Calm - N/A Fog Fog
2:53 AM 46.9 °F 44.1 °F 90% 30.08 in 0.8 mi Calm Calm - N/A   Mist
2:56 AM 46.4 °F 44.6 °F 93% 30.08 in 2.5 mi Calm Calm - N/A   Mostly Cloudy
2:58 AM 46.4 °F 44.6 °F 93% 30.08 in 5.0 mi Calm Calm - N/A   Scattered Clouds
3:02 AM 46.4 °F 44.6 °F 93% 30.08 in 1.0 mi Calm Calm - N/A   Mist
3:09 AM 46.4 °F 44.6 °F 93% 30.09 in 0.5 mi Calm Calm - N/A Fog Fog
3:20 AM 46.4 °F 44.6 °F 93% 30.09 in 1.0 mi Calm Calm - N/A   Mist
3:49 AM 46.4 °F 44.6 °F 93% 30.09 in 2.0 mi Calm Calm - N/A   Overcast
3:53 AM 46.0 °F 44.1 °F 93% 30.09 in 1.5 mi Calm Calm - N/A   Overcast
4:03 AM 46.4 °F 44.6 °F 93% 30.09 in 0.8 mi Calm Calm - N/A   Mist
4:12 AM 46.4 °F 42.8 °F 87% 30.08 in 1.0 mi Calm Calm - N/A   Mist
4:22 AM 46.4 °F 42.8 °F 87% 30.08 in 2.5 mi Calm Calm - N/A   Scattered Clouds
4:29 AM 44.6 °F 42.8 °F 93% 30.08 in 6.0 mi Calm Calm - N/A   Partly Cloudy
4:49 AM 46.4 °F 44.6 °F 93% 30.08 in 1.8 mi Calm Calm - N/A   Partly Cloudy
4:53 AM 45.0 °F 43.0 °F 93% 30.08 in 1.8 mi Calm Calm - N/A   Partly Cloudy
4:58 AM 44.6 °F 42.8 °F 93% 30.08 in 3.0 mi Calm Calm - N/A   Clear
5:03 AM 44.6 °F 42.8 °F 93% 30.08 in 2.0 mi Calm Calm - N/A   Partly Cloudy
5:19 AM 44.6 °F 42.8 °F 93% 30.08 in 3.0 mi Calm Calm - N/A   Partly Cloudy
5:53 AM 44.1 °F 42.1 °F 93% 30.07 in 2.5 mi Calm Calm - N/A   Partly Cloudy
6:01 AM 44.6 °F 42.8 °F 93% 30.07 in 1.8 mi Calm Calm - N/A   Partly Cloudy
6:05 AM 44.6 °F 42.8 °F 93% 30.07 in 3.0 mi Calm Calm - N/A   Scattered Clouds
6:15 AM 44.6 °F 42.8 °F 93% 30.07 in 8.0 mi Calm Calm - N/A   Mostly Cloudy
6:49 AM 44.6 °F 42.8 °F 93% 30.08 in 1.5 mi Calm Calm - N/A   Overcast
6:53 AM 45.0 °F 43.0 °F 93% 30.09 in 0.8 mi Calm Calm - N/A   Overcast
7:08 AM 46.4 °F 44.6 °F 93% 30.09 in 0.2 mi Calm Calm - N/A Fog Fog
7:53 AM 48.9 °F 48.0 °F 97% 30.10 in 0.2 mi Calm Calm - N/A Fog Fog
8:04 AM 51.8 °F 48.2 °F 88% 30.10 in 1.0 mi Calm Calm - N/A   Mist
8:08 AM 51.8 °F 48.2 °F 88% 30.10 in 3.0 mi Calm Calm - N/A   Mostly Cloudy
8:19 AM 53.6 °F 51.8 °F 94% 30.10 in 6.0 mi Calm Calm - N/A   Scattered Clouds
8:53 AM 57.0 °F 53.1 °F 87% 30.10 in 8.0 mi Calm Calm - N/A   Clear
9:53 AM 64.0 °F 55.0 °F 73% 30.10 in 10.0 mi Calm Calm - N/A   Clear
10:53 AM 70.0 °F 53.1 °F 55% 30.09 in 10.0 mi Calm Calm - N/A   Clear
11:53 AM 73.0 °F 55.0 °F 53% 30.08 in 10.0 mi South 4.6 mph - N/A   Clear
12:53 PM 75.9 °F 48.0 °F 37% 30.06 in 10.0 mi SSW 4.6 mph - N/A   Clear
1:53 PM 77.0 °F 54.0 °F 45% 30.04 in 10.0 mi South 8.1 mph - N/A   Clear
2:53 PM 77.0 °F 48.0 °F 36% 30.03 in 10.0 mi South 8.1 mph - N/A   Clear
3:53 PM 77.0 °F 50.0 °F 39% 30.02 in 10.0 mi SSW 9.2 mph - N/A   Clear
4:53 PM 75.9 °F 52.0 °F 43% 30.01 in 10.0 mi South 9.2 mph - N/A   Clear
5:53 PM 73.0 °F 55.9 °F 55% 30.02 in 10.0 mi South 8.1 mph - N/A   Clear
6:53 PM 66.0 °F 57.0 °F 73% 30.02 in 10.0 mi South 3.5 mph - N/A   Clear
7:53 PM 63.0 °F 55.0 °F 75% 30.03 in 10.0 mi Calm Calm - N/A   Clear
8:53 PM 59.0 °F 55.0 °F 87% 30.03 in 10.0 mi Calm Calm - N/A   Clear
9:53 PM 55.0 °F 53.1 °F 93% 30.03 in 8.0 mi Calm Calm - N/A   Clear
10:53 PM 54.0 °F 51.1 °F 90% 30.03 in 3.0 mi Calm Calm - N/A   Clear
10:58 PM 53.6 °F 51.8 °F 94% 30.03 in 1.2 mi Calm Calm - N/A   Partly Cloudy
11:14 PM 53.6 °F 51.8 °F 94% 30.02 in 8.0 mi Calm Calm - N/A   Scattered Clouds
11:35 PM 53.6 °F 51.8 °F 94% 30.02 in 1.5 mi Calm Calm - N/A   Partly Cloudy
11:42 PM 51.8 °F 51.8 °F 100% 30.02 in 0.2 mi Calm Calm - N/A Fog Fog
11:53 PM 52.0 °F 50.0 °F 93% 30.02 in 0.5 mi Calm Calm - N/A Fog Fog
11:57 PM 51.8 °F 48.2 °F 88% 30.02 in 2.5 mi Calm Calm - N/A   Mostly Cloudy